This is the latest recevied weather packets stored in our database for station/object Rana. If no packets are shown the sender has not sent any weather packets the latest 1 day(s).
| Time | Temp. | Humidity | Pressure | Rain* | Wind** | Luminosity | Snow |
|---|---|---|---|---|---|---|---|
| 1777998911 | 17.22° C | 60% | - | - | 7.15 m/s, 3° | - | - |
| 1777998612 | 17.22° C | 60% | - | - | 7.15 m/s, 10° | - | - |
| 1777998310 | 17.22° C | 60% | - | - | 8.05 m/s, 2° | - | - |
| 1777998010 | 17.78° C | 59% | - | - | 7.15 m/s, 5° | - | - |
| 1777997711 | 17.78° C | 59% | - | - | 7.15 m/s, 10° | - | - |
| 1777997410 | 17.78° C | 59% | - | - | 8.94 m/s, 355° | - | - |
| 1777997110 | 17.78° C | 58% | - | - | 8.94 m/s, 358° | - | - |
| 1777996810 | 17.78° C | 57% | - | - | 8.05 m/s, 9° | - | - |
| 1777996510 | 17.78° C | 56% | - | - | 8.94 m/s, 12° | - | - |
| 1777996210 | 17.78° C | 55% | - | - | 8.94 m/s, 359° | - | - |
| 1777995910 | 17.78° C | 55% | - | - | 8.94 m/s, 7° | - | - |
| 1777995610 | 17.78° C | 54% | - | - | 9.83 m/s, 357° | - | - |
| 1777995304 | 17.78° C | 54% | - | - | 9.83 m/s, 356° | - | - |
| 1777995010 | 18.89° C | 53% | - | - | 8.94 m/s, 350° | - | - |
| 1777994711 | 18.89° C | 53% | - | - | 9.83 m/s, 355° | - | - |
| 1777994412 | 18.89° C | 53% | - | - | 8.94 m/s, 344° | - | - |
| 1777994110 | 18.89° C | 53% | - | - | 8.05 m/s, 350° | - | - |
| 1777993810 | 18.89° C | 52% | - | - | 8.94 m/s, 342° | - | - |
| 1777993511 | 18.89° C | 52% | - | - | 8.94 m/s, 344° | - | - |
| 1777993210 | 18.89° C | 52% | - | - | 8.05 m/s, 350° | - | - |
| 1777992911 | 18.89° C | 52% | - | - | 9.83 m/s, 347° | - | - |
| 1777992617 | 18.89° C | 52% | - | - | 8.94 m/s, 358° | - | - |
| 1777992310 | 18.89° C | 52% | - | - | 8.94 m/s, 351° | - | - |
| 1777992010 | 18.89° C | 52% | - | - | 9.83 m/s, 354° | - | - |
| 1777991711 | 20° C | 51% | - | - | 9.83 m/s, 357° | - | - |
* Rain since midnight (hover to see other rain measurements)
** Current wind speed in m/s (hover to see current wind gust speed)